FW1746 Weather Reports


Display with metric or nautical units.
time (UTC)temp
F
wind
direction
speed
MPH
gust
MPH
rain 1hr
in
rain 24hr
in
rain mn
in
humidity
%
barometer
mb
20260901063036 54 175 0.0 2.0 0.00 0.01 0.01 94 1008.4
20260901061528 53 173 1.0 3.0 0.00 0.01 0.01 95 1008.3
20260901060025 53 231 0.0 0.0 0.00 0.01 0.01 96 1008.1
20260901054524 52 228 2.0 5.0 0.00 0.01 0.01 96 1008.1
20260901053032 52 249 0.0 4.0 0.00 0.01 0.01 96 1007.9
20260901051524 51 212 0.0 3.0 0.00 0.01 0.01 96 1007.9
20260901050023 51 194 0.0 1.0 0.00 0.01 0.01 96 1007.8
20260901044521 52 195 0.0 3.0 0.00 0.01 0.01 96 1007.8
20260901043028 52 235 1.0 2.0 0.00 0.01 0.01 96 1007.6
20260901041519 52 252 1.0 2.0 0.00 0.01 0.01 95 1007.6
20260901040017 52 238 0.0 3.0 0.01 0.01 0.01 95 1007.5
20260901034516 53 236 1.0 5.0 0.01 0.01 0.01 95 1007.4
20260901033017 53 234 1.0 3.0 0.01 0.01 0.01 96 1007.2
20260901031510 53 178 0.0 3.0 0.01 0.01 0.01 96 1007.1
20260901030014 53 170 1.0 3.0 0.00 0.00 0.00 95 1007.0
20260901024507 53 184 1.0 4.0 0.00 0.00 0.00 95 1007.0
20260901023010 53 187 0.0 3.0 0.00 0.00 0.00 95 1006.9
20260901021508 54 172 0.0 2.0 0.00 0.00 0.00 95 1006.9
20260901020012 54 196 0.0 4.0 0.00 0.00 0.00 95 1006.8
20260901014505 54 224 0.0 5.0 0.00 0.00 0.00 95 1006.9
20260901013007 54 182 2.0 5.0 0.00 0.00 0.00 95 1006.9
20260901011504 54 215 0.0 1.0 0.00 0.00 0.00 94 1006.8
20260901010003 54 214 0.0 1.0 0.00 0.00 0.00 93 1006.8
20260901004501 54 215 0.0 2.0 0.00 0.00 0.00 93 1006.8
20260901003057 55 215 0.0 2.0 0.00 0.00 0.00 93 1006.7
20260901001603 55 215 0.0 2.0 0.00 0.00 0.00 93 1006.7
20260901000054 55 184 1.0 3.0 0.00 0.00 0.00 92 1006.8
20260831234555 56 184 0.0 3.0 0.00 0.00 0.00 92 1006.9
20260831233049 56 174 0.0 4.0 0.00 0.00 0.00 91 1006.7
20260831231601 56 211 1.0 5.0 0.00 0.00 0.00 91 1006.8
20260831230051 57 192 1.0 4.0 0.00 0.00 0.00 90 1006.7
20260831224611 57 229 0.0 5.0 0.00 0.00 0.00 90 1006.6
20260831223044 57 192 0.0 3.0 0.00 0.00 0.00 90 1006.5
20260831221550 57 190 0.0 5.0 0.00 0.00 0.00 89 1006.6
20260831220047 57 205 1.0 4.0 0.00 0.00 0.00 89 1006.6
20260831214545 58 219 0.0 5.0 0.00 0.00 0.00 89 1006.6
20260831213039 57 238 1.0 6.0 0.00 0.00 0.00 88 1006.5
20260831211542 58 181 1.0 5.0 0.00 0.00 0.00 88 1006.5
20260831210037 58 198 1.0 5.0 0.00 0.00 0.00 87 1006.4
20260831204538 58 209 1.0 6.0 0.00 0.00 0.00 87 1006.2
20260831203040 58 198 1.0 5.0 0.00 0.00 0.00 86 1006.2
20260831201534 59 156 1.0 4.0 0.00 0.00 0.00 85 1006.1
20260831200032 59 195 1.0 5.0 0.00 0.00 0.00 85 1006.0
20260831194541 59 190 1.0 6.0 0.00 0.00 0.00 84 1005.9
20260831193043 60 207 0.0 4.0 0.00 0.00 0.00 84 1005.7
20260831191543 60 207 1.0 3.0 0.00 0.00 0.00 84 1005.7
20260831190030 61 187 1.0 4.0 0.00 0.00 0.00 83 1005.6
20260831184529 61 200 1.0 4.0 0.00 0.00 0.00 82 1005.4
20260831183030 62 171 0.0 3.0 0.00 0.00 0.00 81 1005.3
20260831181530 63 160 1.0 8.0 0.00 0.00 0.00 79 1005.1
20260831180032 63 175 1.0 6.0 0.00 0.00 0.00 78 1005.0
20260831174530 64 166 1.0 6.0 0.00 0.00 0.00 77 1005.0
20260831173038 65 191 3.0 9.0 0.00 0.00 0.00 76 1004.8
20260831171528 65 199 2.0 7.0 0.00 0.00 0.00 75 1004.7
20260831170027 66 172 1.0 7.0 0.00 0.00 0.00 75 1004.8
20260831164527 66 153 2.0 7.0 0.00 0.00 0.00 75 1004.8
20260831163033 67 157 2.0 8.0 0.00 0.00 0.00 74 1004.8
20260831161531 66 163 1.0 6.0 0.00 0.00 0.00 74 1004.7
20260831160030 67 167 3.0 8.0 0.00 0.00 0.00 72 1004.8
20260831154550 67 185 2.0 9.0 0.00 0.00 0.00 71 1004.9
20260831153026 68 194 2.0 7.0 0.00 0.00 0.00 70 1004.9
20260831151530 68 188 2.0 8.0 0.00 0.00 0.00 69 1004.8
20260831150022 68 161 2.0 10.0 0.00 0.00 0.00 68 1004.8
20260831144522 69 198 3.0 8.0 0.00 0.00 0.00 67 1004.8
20260831143021 68 192 3.0 8.0 0.00 0.00 0.00 71 1004.7
20260831141622 67 141 3.0 9.0 0.00 0.00 0.00 72 1004.8
20260831140020 67 153 3.0 11.0 0.00 0.00 0.00 73 1004.8
20260831134521 68 175 4.0 11.0 0.00 0.00 0.00 72 1004.7
20260831133021 68 179 5.0 10.0 0.00 0.00 0.00 72 1004.7
20260831131520 68 163 2.0 6.0 0.00 0.00 0.00 71 1004.7
20260831130018 68 154 3.0 9.0 0.00 0.00 0.00 70 1004.6
20260831124534 69 164 5.0 12.0 0.00 0.00 0.00 69 1004.6
20260831123017 70 165 5.0 10.0 0.00 0.00 0.00 68 1004.7
20260831121515 70 118 5.0 9.0 0.00 0.00 0.00 70 1004.7
20260831120016 68 157 5.0 11.0 0.00 0.00 0.00 72 1004.7
20260831114507 66 146 4.0 8.0 0.00 0.00 0.00 75 1004.8
20260831113008 65 157 4.0 9.0 0.00 0.00 0.00 76 1004.8
20260831111606 64 182 4.0 9.0 0.00 0.00 0.00 77 1004.7
20260831110013 64 158 3.0 8.0 0.00 0.00 0.00 77 1004.7
20260831104505 64 166 0.0 5.0 0.00 0.00 0.00 75 1004.7
20260831103007 64 155 2.0 8.0 0.00 0.00 0.00 75 1004.8
20260831101503 64 172 3.0 8.0 0.00 0.00 0.00 74 1004.9
20260831100108 64 157 2.0 8.0 0.00 0.00 0.00 74 1005.0
20260831094627 64 167 2.0 8.0 0.00 0.00 0.00 75 1004.9
20260831091612 63 184 2.0 7.0 0.00 0.00 0.00 76 1004.9
20260831090052 63 171 2.0 6.0 0.00 0.00 0.00 75 1004.9
20260831084551 62 170 0.0 6.0 0.00 0.00 0.00 76 1004.9
20260831081543 61 183 3.0 6.0 0.00 0.00 0.00 78 1005.1
20260831080040 60 186 2.0 7.0 0.00 0.00 0.00 79 1005.1
20260831074537 60 177 1.0 5.0 0.00 0.00 0.00 80 1005.0
20260831071529 59 236 1.0 6.0 0.00 0.00 0.00 81 1004.9
20260831070026 58 239 1.0 5.0 0.00 0.00 0.00 82 1005.0
20260831064524 57 244 0.0 3.0 0.00 0.00 0.00 85 1005.0